Flag for Belgium Weather past 2 weeks in Kortrijk, Belgium

Now
61 °F

Clear.


Feels Like: 61 °F
Forecast: 53 / 83 °F
Wind: 2 mph from East

Location: Lille Airport

Current Time: Jun 30, 2015 at 1:57:30 AM

Latest Report: Jun 30, 2015 at 1:30 AM


Visibility: 10 mi

Pressure: 30.18 "Hg

Humidity: 77%

Dew point: 54 °F

Location of KortrijkLocation

Historic Weather in Kortrijk — Graph

°F

Kortrijk temperature yesterday

Maximum temperature yesterday: 79 °F (at 5:00 PM)
Minimum temperature yesterday: 59 °F (at 3:30 AM)
Average temperature yesterday: 68 °F

Past Weeks' High & Low Weather Summary

 TemperatureHumidityPressure
High82 °F (Jun 26, 3:00 PM)100% (Jun 21, 3:30 AM)30.30 "Hg (Jun 21, 3:30 AM)
Low46 °F (Jun 24, 5:30 AM)34% (Jun 26, 2:00 PM)29.74 "Hg (Jun 22, 5:30 PM)
Average62 °F68%30.11 "Hg
* Reported Jun 15 1:00 AM — Jun 30 1:00 AM, Kortrijk, Weather by CustomWeather, © 2015

Note: Actual official high and low records may vary slightly from our data, if they occured in-between our weather recording intervals... More about our weather records

Advertising

Kortrijk weather history for previous 24 hours

 ConditionsComfort  
Time TempWeatherWind HumidityBarometerVisibility
1:00 AM
Tue, Jun 30
63 °FClear.2 mph73%30.18 "Hg10 mi
12:30 AM63 °FClear.3 mph73%30.18 "Hg10 mi
11:30 PM
Mon, Jun 29
64 °FClear.2 mph68%30.21 "Hg10 mi
11:00 PM66 °FSunny.5 mph64%30.21 "Hg10 mi
10:30 PM68 °FSunny.5 mph60%30.21 "Hg10 mi
10:00 PM68 °FSunny.6 mph64%30.21 "Hg10 mi
9:30 PM70 °FPassing clouds.7 mph60%30.21 "HgN/A
9:00 PM72 °FPassing clouds.7 mph57%30.18 "HgN/A
8:30 PM72 °FPassing clouds.8 mph57%30.18 "HgN/A
8:00 PM73 °FPassing clouds.9 mph53%30.18 "HgN/A
7:30 PM77 °FPassing clouds.5 mph47%30.18 "HgN/A
7:00 PM77 °FPassing clouds.7 mph42%30.18 "HgN/A
6:30 PM77 °FPassing clouds.3 mph42%30.18 "HgN/A
6:00 PM77 °FPassing clouds.8 mph42%30.18 "HgN/A
5:30 PM77 °FPassing clouds.6 mph39%30.18 "HgN/A
5:00 PM79 °FPassing clouds.7 mph39%30.18 "HgN/A
4:30 PM77 °FPassing clouds.8 mph39%30.18 "HgN/A
4:00 PM77 °FPassing clouds.7 mph39%30.18 "HgN/A
3:30 PM77 °FPassing clouds.7 mph36%30.18 "HgN/A
3:00 PM75 °FPassing clouds.7 mph39%30.18 "HgN/A
2:30 PM75 °FPassing clouds.8 mph41%30.18 "HgN/A
2:00 PM73 °FPassing clouds.8 mph41%30.18 "HgN/A
1:30 PM73 °FPassing clouds.7 mph44%30.21 "HgN/A
1:00 PM73 °FPassing clouds.7 mph44%30.21 "HgN/A
12:30 PM72 °FPassing clouds.5 mph47%30.21 "HgN/A
12:00 PM70 °FPassing clouds.7 mph50%30.18 "HgN/A
11:30 AM70 °FPartly sunny.6 mph60%30.18 "HgN/A
11:00 AM68 °FPassing clouds.6 mph69%30.18 "HgN/A
10:30 AM68 °FPassing clouds.3 mph69%30.18 "HgN/A
10:00 AM66 °FScattered clouds.5 mph73%30.18 "HgN/A
9:30 AM64 °FScattered clouds.6 mph78%30.18 "HgN/A
9:00 AM64 °FPartly sunny.6 mph78%30.18 "HgN/A
8:30 AM63 °FOvercast.7 mph83%30.18 "HgN/A
8:00 AM61 °FOvercast.6 mph88%30.15 "HgN/A
7:30 AM61 °FOvercast.6 mph88%30.15 "HgN/A
7:00 AM61 °FLow clouds.6 mph88%30.15 "HgN/A
6:30 AM61 °FLow clouds.7 mph88%30.15 "HgN/A
6:00 AM59 °FLow clouds.6 mph94%30.15 "HgN/A
5:30 AM59 °FLow clouds.7 mph88%30.15 "HgN/A
5:00 AM59 °FLow clouds.8 mph88%30.15 "HgN/A
4:30 AM59 °FPassing clouds.12 mph88%30.15 "HgN/A
4:00 AM59 °FClear.10 mph82%30.15 "Hg10 mi
3:30 AM59 °FClear.9 mph77%30.12 "Hg10 mi
3:00 AM61 °FClear.10 mph72%30.12 "Hg10 mi
2:30 AM61 °FClear.8 mph68%30.12 "Hg10 mi
2:00 AM61 °FClear.7 mph68%30.12 "Hg10 mi
1:30 AM63 °FClear.7 mph64%30.12 "Hg10 mi
1:00 AM63 °FClear.9 mph64%30.12 "Hg10 mi
Weather by CustomWeather, © 2015

See weather overviewHow to use our weather pages